THORAD DELTA 1 DEB, 9699

Orbit data source: Space-Track

THORAD DELTA 1 DEB, 9699 is space debris in SSO originally from a launch on Fri, 15 Nov 1974 UTC launched from the Air Force Western Test Range (AFWTR). Debris objects in space refer to the collection of defunct objects orbiting the Earth. Examples of debris include non-operational satellites, rocket bodies, and fragments generated from explosions, collisions, or faulty payload assembly.

Loading next visibility...
Identifier
9699, 1974-089DY
Orbit
SSO
Country
Flag of USUS
Related business
Manufacturer
Unknown
Mission
Spacecraft
Bus & Motor
Unknown
Mass
Unknown
Launch date (UTC)
1974-11-15 (51 years ago)
Launch vehicle
Unknown
Launch site
Air Force Western Test Range (AFWTR)
Object type
Payload
Rocket body
Debris
Shape & HBR
Unknown shape, 0.1 m
Radar Cross Section
Small (<0.1 m²)

Expand to show TLE details & history
Last TLE update: 23 hours ago

TLE from 23 hours ago
0 THORAD DELTA 1 DEB
1 09699U 74089DY  25287.81823916 -.00000017  00000-0  20197-3 0  9994
2 09699 101.6164  50.9052 0123812  50.4123 103.7788 12.29318967287321
Epoch: 2025-10-14T19:38Z
TLE epoch observation values (Epoch: 2025-10-14T19:38:15.863Z)
Latitude
23.92726°
Longitude
-82.05415°
Altitude
1,579.314 km
Speed
7.07 km/s
True Right ascension
15h 44m 27s
True Declination
23° 48' 47"
Sunlit
Object was in daylight at epoch
Visualization orbit readout
Latitude
Unknown
Longitude
Unknown
Altitude
Unknown
Speed
Unknown
Apparent Right ascension
Unknown
Apparent Declination
Unknown
Sunlit
N/A
Visualization observer readout
Local Sidereal Time
12:59:13
Azimuth
Unknown
Elevation
Unknown
Doppler factor
Unknown
Orbital elements
Apogee altitude
1,647.932 km
Perigee altitude
1,451.617 km
Semi-major axis
7,927.912 km
Eccentricity
0.01238
Inclination
101.6164°
RAAN
50.9052°
Arg. of periapsis
50.4123°
True anomaly
105.15156°
Mean anomaly
103.7788°
Eccentric anomaly
104.4657°
Mean motion
3.07472 °/min
Orbital period
117.08 mins
BSTAR
0.00020197
Loading maneuver chart data...
Computing Atmospheric mass density...

Documentation

Showing up to 5 results
|